GW0425 Weather Reports


time (UTC)temp
C
wind
direction
speed
KPH
gust
KPH
rain 1hr
cm
rain 24hr
cm
rain mn
cm
humidity
%
barometer
mb
20260507161542 17 316 12.9 17.7 0.00 0.00 0.00 75 1011.8
20260507160040 17 322 12.9 17.7 0.00 0.00 0.00 72 1011.8
20260507154541 17 335 12.9 17.7 0.00 0.00 0.00 74 1011.8
20260507153046 17 321 9.7 17.7 0.00 0.00 0.00 73 1012.0
20260507151537 17 326 11.3 19.3 0.00 0.00 0.00 74 1012.1
20260507150043 17 312 11.3 17.7 0.00 0.00 0.00 73 1012.2
20260507144545 17 318 9.7 17.7 0.00 0.00 0.00 73 1012.3
20260507143038 18 325 8.0 14.5 0.00 0.00 0.00 71 1012.6
20260507141537 17 292 9.7 17.7 0.00 0.00 0.00 69 1012.8
20260507140055 18 316 8.0 12.9 0.00 0.00 0.00 68 1012.8
20260507134542 18 320 6.4 14.5 0.00 0.00 0.00 67 1012.9
20260507133040 18 274 4.8 14.5 0.00 0.00 0.00 67 1013.2
20260507131540 17 276 4.8 12.9 0.00 0.00 0.00 69 1013.3
20260507130049 17 319 6.4 11.3 0.00 0.00 0.00 71 1013.4
20260507124543 17 319 4.8 9.7 0.00 0.00 0.00 71 1013.4
20260507123047 17 269 3.2 14.5 0.00 0.00 0.00 70 1013.5
20260507121546 17 281 4.8 11.3 0.00 0.00 0.00 73 1013.5
20260507120044 17 0 1.6 11.3 0.00 0.00 0.00 75 1013.6
20260507114544 16 245 3.2 8.0 0.00 0.00 0.00 76 1013.7
20260507113040 16 319 3.2 8.0 0.00 0.00 0.00 76 1013.8
20260507111540 16 266 1.6 6.4 0.00 0.00 0.00 76 1013.9
20260507110036 16 0 1.6 8.0 0.00 0.00 0.00 77 1014.1
20260507104542 16 271 1.6 8.0 0.00 0.00 0.00 76 1014.1
20260507103041 16 148 0.0 4.8 0.00 0.00 0.00 78 1014.2
20260507101545 16 36 1.6 6.4 0.00 0.00 0.00 77 1014.2
20260507100038 15 240 0.0 3.2 0.00 0.00 0.00 77 1014.3
20260507094537 15 0 0.0 3.2 0.00 0.00 0.00 77 1014.4
20260507093042 15 238 1.6 8.0 0.00 0.00 0.00 78 1014.3
20260507091542 15 0 1.6 6.4 0.00 0.00 0.00 79 1014.3
20260507090042 15 211 1.6 3.2 0.00 0.00 0.00 78 1014.2
20260507084538 15 98 1.6 4.8 0.00 0.00 0.00 78 1014.2
20260507083043 15 116 0.0 4.8 0.00 0.00 0.00 80 1014.2
20260507081536 15 0 0.0 3.2 0.00 0.00 0.00 80 1014.4
20260507080053 14 0 0.0 8.0 0.00 0.00 0.00 86 1014.3
20260507074544 13 122 1.6 6.4 0.00 0.00 0.00 88 1014.4
20260507073036 13 122 0.0 3.2 0.00 0.00 0.00 91 1014.1
20260507071553 12 0 0.0 1.6 0.00 0.00 0.00 93 1014.0
20260507070042 11 0 0.0 1.6 0.00 0.00 0.00 94 1014.1
20260507064545 11 0 0.0 0.0 0.00 0.00 0.00 94 1013.9
20260507063040 10 0 0.0 0.0 0.00 0.00 0.00 94 1013.8
20260507061539 10 0 0.0 0.0 0.00 0.00 0.00 94 1013.9
20260507060036 10 0 0.0 0.0 0.00 0.00 0.00 94 1013.9
20260507054538 10 0 0.0 0.0 0.00 0.00 0.00 94 1013.8
20260507053045 10 0 0.0 0.0 0.00 0.00 0.00 94 1013.8
20260507051541 10 0 0.0 0.0 0.00 0.00 0.00 94 1013.7
20260507050039 10 0 0.0 0.0 0.00 0.00 0.00 93 1013.6
20260507044537 10 0 0.0 1.6 0.00 0.05 0.00 93 1013.4
20260507043038 10 0 0.0 1.6 0.00 0.05 0.00 93 1013.5
20260507041543 10 129 0.0 1.6 0.00 0.05 0.00 93 1013.5
20260507040051 10 131 0.0 1.6 0.00 0.05 0.00 93 1013.5
20260507034544 10 0 0.0 0.0 0.00 0.08 0.00 93 1013.4
20260507033040 10 0 0.0 0.0 0.00 0.08 0.00 92 1013.4
20260507031537 10 0 0.0 1.6 0.00 0.08 0.00 92 1013.5
20260507030043 10 0 0.0 0.0 0.00 0.08 0.00 92 1013.5
20260507024542 10 0 0.0 1.6 0.00 0.08 0.00 92 1013.4
20260507023040 10 0 0.0 0.0 0.00 0.08 0.00 92 1013.4
20260507021541 10 0 0.0 0.0 0.00 0.08 0.00 91 1013.4
20260507020039 10 0 0.0 0.0 0.00 0.08 0.00 91 1013.5
20260507014537 11 0 0.0 0.0 0.00 0.08 0.00 90 1013.4
20260507013037 11 0 0.0 0.0 0.00 0.08 0.00 90 1013.4
20260507011540 11 0 0.0 0.0 0.00 0.08 0.00 90 1013.5
20260507010042 11 0 0.0 0.0 0.00 0.08 0.00 89 1013.4
20260507004541 11 0 0.0 0.0 0.00 0.08 0.00 89 1013.6
20260507003039 12 0 0.0 0.0 0.00 0.08 0.00 89 1013.7
20260507001547 12 0 0.0 0.0 0.00 0.08 0.00 88 1013.9
20260507000041 12 0 0.0 0.0 0.00 0.08 0.00 88 1013.9
20260506234544 12 0 0.0 0.0 0.00 0.08 0.00 87 1013.9
20260506233039 12 0 0.0 0.0 0.00 0.08 0.00 86 1013.9
20260506231539 12 0 0.0 0.0 0.00 0.08 0.00 85 1013.9
20260506230037 12 0 0.0 1.6 0.00 0.08 0.00 85 1013.8
20260506224537 12 0 0.0 1.6 0.00 0.08 0.00 84 1014.0
20260506223041 13 0 0.0 1.6 0.00 0.08 0.00 83 1013.8
20260506221539 13 0 0.0 3.2 0.00 0.08 0.00 83 1013.8
20260506220044 13 0 0.0 4.8 0.00 0.08 0.00 85 1013.8
20260506214538 12 0 0.0 1.6 0.00 0.08 0.08 87 1013.7
20260506213036 12 0 0.0 0.0 0.00 0.08 0.08 87 1013.8
20260506211544 12 0 0.0 0.0 0.00 0.08 0.08 86 1013.8
20260506210040 12 0 0.0 0.0 0.00 0.08 0.08 85 1013.8
20260506204538 12 0 0.0 0.0 0.00 0.08 0.08 83 1013.7
20260506203057 13 0 0.0 0.0 0.00 0.08 0.08 83 1013.6
20260506201536 13 0 0.0 0.0 0.00 0.08 0.08 83 1013.5
20260506200045 13 0 0.0 4.8 0.00 0.08 0.08 84 1013.2
20260506194541 13 34 3.2 11.3 0.00 0.08 0.08 84 1013.2
20260506193039 13 29 6.4 14.5 0.00 0.08 0.08 81 1012.9
20260506191538 14 13 9.7 14.5 0.00 0.08 0.08 80 1012.8
20260506190046 14 345 3.2 11.3 0.00 0.08 0.08 79 1012.7
20260506184543 14 322 6.4 12.9 0.00 0.08 0.08 78 1012.6
20260506183042 14 302 9.7 16.1 0.00 0.08 0.08 78 1012.5
20260506181539 14 312 8.0 17.7 0.00 0.08 0.08 79 1012.4
20260506180040 14 346 8.0 17.7 0.00 0.08 0.08 80 1012.3
20260506174538 14 326 11.3 16.1 0.00 0.08 0.08 79 1012.2
20260506173047 13 321 9.7 14.5 0.00 0.08 0.08 82 1012.2
20260506171538 13 324 3.2 8.0 0.00 0.08 0.08 84 1012.2
20260506170041 13 35 4.8 14.5 0.00 0.08 0.08 85 1012.2
20260506164545 13 325 11.3 19.3 0.00 0.08 0.08 83 1012.0
20260506163054 13 326 12.9 20.9 0.00 0.08 0.08 83 1011.9